Olympia, WA
on Friday, January 18, 2013

Friday
Previous Day Next Day
Daily Summary
 ActualAverageRecord
Temperature
Mean Temperature °F 40°F  
Max Temperature 44°F 46°F 60°F (2005)
Min Temperature 24°F 34°F 13°F (1950)
Degree Days
Heating Degree Days 31 25  
Month to date heating degree days 534 460  
Since 1 July heating degree days 2697 2730  
Cooling Degree Days 0 0  
Month to date cooling degree days 0 0  
Year to date cooling degree days 0 0  
Moisture
Dew Point 31°F   
Average Humidity 90    
Maximum Humidity 100    
Minimum Humidity 79    
Precipitation
Precipitation 0.00 in 0.27 in 3.23 in (1986)
Month to date precipitation 2.79 4.70  
Year to date precipitation 2.79 4.70  
Wind
Wind Speed 5 mph   
Max Wind Speed 12 mph   
Max Gust Speed 13 mph   
Visibility 4 miles   
Events Fog   

Key: T is trace of precipitation, MM is missing value
Source: NWS Daily Summary
Time(PST)TemperatureDew PointHumidity Pressure Visibility Wind DirectionWind SpeedGust SpeedPrecipitationEvents Conditions
12:04 AM 30.0°F 30.0°F 100% 30.30 in 0.5 miles South 8.1 mph - N/A Fog Light Freezing Fog
12:32 AM 30.0°F 28.9°F 96% 30.30 in 1.0 miles South 5.8 mph - N/A   Overcast
12:47 AM 30.0°F 28.9°F 96% 30.30 in 0.8 miles SSW 4.6 mph - N/A   Overcast
12:54 AM 30.0°F 28.9°F 96% 30.31 in 0.8 miles South 5.8 mph - N/A   Overcast
1:45 AM 30.0°F 28.9°F 96% 30.29 in 1.5 miles South 6.9 mph - N/A   Overcast
1:54 AM 30.0°F 28.9°F 96% 30.30 in 1.2 miles South 5.8 mph - N/A   Overcast
2:02 AM 28.9°F 28.9°F 100% 30.29 in 2.0 miles South 6.9 mph - N/A   Overcast
2:10 AM 30.0°F 28.9°F 96% 30.29 in 3.0 miles South 8.1 mph - N/A   Overcast
2:54 AM 28.9°F 28.9°F 100% 30.30 in 2.0 miles South 6.9 mph - N/A   Overcast
3:03 AM 28.9°F 28.9°F 100% 30.29 in 1.5 miles South 6.9 mph - N/A   Overcast
3:18 AM 28.9°F 28.9°F 100% 30.28 in 3.0 miles South 6.9 mph - N/A   Overcast
3:38 AM 28.9°F 28.9°F 100% 30.28 in 2.0 miles South 6.9 mph - N/A   Overcast
3:54 AM 28.9°F 28.0°F 96% 30.28 in 2.5 miles South 6.9 mph - N/A   Overcast
4:01 AM 28.9°F 28.0°F 96% 30.27 in 3.0 miles South 8.1 mph - N/A   Overcast
4:31 AM 28.9°F 28.0°F 96% 30.27 in 2.0 miles South 5.8 mph - N/A   Overcast
4:47 AM 28.0°F 27.0°F 96% 30.27 in 4.0 miles South 6.9 mph - N/A   Mostly Cloudy
4:54 AM 28.0°F 27.0°F 96% 30.27 in 6.0 miles South 6.9 mph - N/A   Scattered Clouds
5:54 AM 27.0°F 26.1°F 96% 30.27 in 6.0 miles South 4.6 mph - N/A   Clear
6:54 AM 25.0°F 24.1°F 96% 30.27 in 6.0 miles Calm Calm - N/A   Clear
7:54 AM 25.0°F 23.0°F 92% 30.30 in 6.0 miles Calm Calm - N/A   Clear
8:54 AM 28.9°F 28.0°F 96% 30.30 in 5.0 miles SSW 3.5 mph - N/A   Clear
9:54 AM 30.9°F 30.0°F 96% 30.31 in 6.0 miles Calm Calm - N/A   Clear
10:47 AM 34.0°F 32.0°F 92% 30.30 in 6.0 miles Calm Calm - N/A   Partly Cloudy
10:54 AM 34.0°F 32.0°F 92% 30.32 in 6.0 miles NNE 4.6 mph - N/A   Partly Cloudy
11:54 AM 37.0°F 34.0°F 89% 30.30 in 7.0 miles Calm Calm - N/A   Scattered Clouds
12:54 PM 41.0°F 35.1°F 79% 30.29 in 9.0 miles Calm Calm - N/A   Scattered Clouds
1:54 PM 41.0°F 35.1°F 79% 30.29 in 9.0 miles North 9.2 mph - N/A   Clear
2:50 PM 37.4°F 33.8°F 87% 30.29 in 8.0 miles North 9.2 mph - N/A   Scattered Clouds
2:54 PM 37.0°F 34.0°F 89% 30.30 in 8.0 miles North 8.1 mph - N/A   Mostly Cloudy
3:54 PM 37.0°F 34.0°F 89% 30.30 in 7.0 miles NNE 8.1 mph - N/A   Overcast
4:54 PM 36.0°F 33.1°F 89% 30.31 in 7.0 miles North 9.2 mph - N/A   Overcast
5:54 PM 36.0°F 34.0°F 93% 30.31 in 7.0 miles NNE 5.8 mph - N/A   Overcast
6:54 PM 36.0°F 34.0°F 93% 30.32 in 7.0 miles NNE 4.6 mph - N/A   Overcast
7:37 PM 36.0°F 34.0°F 93% 30.31 in 5.0 miles NE 3.5 mph - N/A   Overcast
7:54 PM 36.0°F 34.0°F 93% 30.32 in 5.0 miles NE 3.5 mph - N/A   Overcast
8:54 PM 36.0°F 35.1°F 97% 30.33 in 4.0 miles Variable 3.5 mph - N/A   Overcast
9:18 PM 35.1°F 34.0°F 96% 30.32 in 2.5 miles East 4.6 mph - N/A   Overcast
9:48 PM 33.8°F 33.8°F 100% 30.33 in 1.8 miles East 3.5 mph - N/A   Overcast
9:54 PM 34.0°F 34.0°F 100% 30.34 in 1.8 miles East 3.5 mph - N/A   Overcast
10:51 PM 33.8°F 33.8°F 100% 30.33 in 2.0 miles East 3.5 mph - N/A   Overcast
10:54 PM 34.0°F 33.1°F 96% 30.34 in 2.0 miles East 3.5 mph - N/A   Overcast
11:42 PM 34.0°F 34.0°F 100% 30.33 in 1.5 miles East 4.6 mph - N/A   Overcast
11:45 PM 34.0°F 34.0°F 100% 30.33 in 1.2 miles East 4.6 mph - N/A   Overcast
11:54 PM 35.1°F 34.0°F 96% 30.34 in 1.2 miles East 4.6 mph - N/A   Overcast
Moon Phase
Jan. 18 Jan. 18 Jan. 26 Feb. 03 Feb. 10
Sunrise:07:50 AM (PST) Moon Rise:10:59 AM (PST)1/18
Sunset:04:54 PM (PST) Moon Set:12:21 AM (PST)1/18

Copyright © 2014 The Weather Underground, Inc.